Home   Weather   Ahaus   Past weeks

Flag for Germany Past Weather in Ahaus, North Rhine-Westphalia, Germany — Yesterday and Last 2 Weeks

Now
25 °F

Fog.


Feels Like: 25 °F
Forecast: 21 / 31 °F
Wind: No wind

Location: Twenthe

Current Time: Jan 22, 2017 at 7:24:56 pm

Latest Report: Jan 22, 2017 at 6:00 pm


Visibility: 4 mi

Pressure: 30.32 "Hg

Humidity: 91%

Dew Point: 23 °F

Location of AhausLocation

Past Weather in Ahaus — Graph

°F

Ahaus Temperature Yesterday

Maximum temperature yesterday: 38 °F (at 3:00 pm)
Minimum temperature yesterday: 27 °F (at 3:00 am)
Average temperature yesterday: 31 °F

High & Low Weather Summary for the Past Weeks

 TemperatureHumidityPressure
High48 °F (Jan 11, 2:00 pm)100% (Jan 7, 8:00 pm)30.75 "Hg (Jan 7, 8:00 pm)
Low17 °F (Jan 22, 9:00 am)48% (Jan 20, 2:00 pm)28.97 "Hg (Jan 13, 2:00 am)
Average32 °F91%30.19 "Hg
* Reported Jan 7 6:00 pm — Jan 22 6:00 pm, Ahaus, Weather by CustomWeather, © 2017

Note: Actual official high and low records may vary slightly from our data, if they occured in-between our weather recording intervals... More about our weather records

Advertising

Ahaus Weather History for the Previous 24 Hours

Scroll right to see more
 ConditionsComfort  
Time TempWeatherWind HumidityBarometerVisibility
6:00 pm
Sun, Jan 22
25 °FFog.No wind91%30.32 "Hg4 mi
5:00 pm28 °FClear.1 mph80%30.31 "Hg7 mi
4:00 pm35 °FSunny.1 mph67%30.31 "Hg7 mi
2:00 pm36 °FSunny.1 mph63%30.31 "Hg7 mi
1:00 pm34 °FSunny.1 mph66%30.34 "Hg8 mi
12:00 pm33 °FSunny.2 mph66%30.35 "Hg9 mi
11:00 am26 °FSunny.1 mph94%30.36 "Hg7 mi
10:00 am21 °FFog.No wind94%30.36 "Hg4 mi
9:00 am17 °FPassing clouds.No wind93%30.36 "Hg2 mi
7:00 am18 °FClear.1 mph96%30.35 "Hg0 mi
6:00 am19 °FClear.No wind97%30.36 "Hg3 mi
5:00 am20 °FClear.No wind93%30.36 "Hg7 mi
4:00 am20 °FClear.1 mph92%30.37 "Hg7 mi
3:00 am22 °FFog.1 mph95%30.37 "Hg4 mi
2:00 am22 °FFog.1 mph100%30.37 "Hg5 mi
1:00 am24 °FClear.No wind94%30.38 "Hg6 mi
12:00 am25 °FClear.1 mph92%30.38 "Hg7 mi
11:00 pm
Sat, Jan 21
27 °FClear.1 mph90%30.38 "Hg7 mi
10:00 pm31 °FClear.2 mph84%30.38 "Hg9 mi
9:00 pm33 °FClear.3 mph79%30.37 "Hg11 mi
8:00 pm33 °FClear.3 mph82%30.38 "Hg11 mi
7:00 pm31 °FClear.3 mph86%30.38 "Hg9 mi
Weather by CustomWeather, © 2017

See weather overviewHow to use our weather pages